Location: Martz Observatory
(42.0083°N, 79.0667°W)
Time: 17:15:46
(UTC-04:00)

Meteor 2-10 Rocket - Pass Details

Date: 26 May 2018
Orbit: 733 x 886 km, 81.2° (Epoch: 19 June)

Event Time Altitude Azimuth Distance (km) Brightness Sun altitude
Rises 04:16:49 0° 351° (N) 3,211 7.3 -14.0°
Reaches altitude 10° 04:19:12 10° 353° (N) 2,268 6.5 -13.6°
Maximum altitude 04:24:16 75° 80° (E) 765 3.6 -13.0°
Drops below altitude 10° 04:29:14 10° 165° (SSE) 2,228 5.6 -12.3°
Sets 04:31:33 0° 167° (SSE) 3,149 6.4 -12.0°
